Regional Weather Roundup
Issued by NWS New Orleans/Baton Rouge, LA

Home | Current Version | Previous Version | Text Only | Print | Product List | Glossary On
Versions: 1 2 3 4 5 6 7 8 9 10 11 12 13 14 15 16 17 18 19 20 21 22 23 24 25 26 27 28 29 30 31 32 33 34 35 36 37 38 39 40 41 42 43 44 45 46 47 48 49 50
000
ASUS44 KLIX 300211
RWRLIX
NEW ORLEANS REGIONAL WEATHER ROUNDUP
NATIONAL WEATHER SERVICE NEW ORLEANS LA
900 PM CDT SUN MAR 29 2015

NOTE: "FAIR" INDICATES FEW OR NO CLOUDS BELOW 12,000 FEET WITH NO
      SIGNIFICANT WEATHER AND/OR OBSTRUCTIONS TO VISIBILITY.
      SKY/WX - SKY CONDITION AND SIGNIFICANT WEATHER.
      TMP - AIR TEMPERATURE.     DP    - DEWPOINT TEMPERATURE.
      RH  - RELATIVE HUMIDITY.   PRES  - PRESSURE.
      HI  - HEAT INDEX.          WCI   - WIND CHILL INDEX.

*  THESE STATIONS ARE NOT NWS OR FAA STATIONS AND ARE NOT UNDER
   NWS QUALITY CONTROL.

LAZ038-040-048-061>063-065>067-069-300300-
SOUTHEAST LOUISIANA

CITY           SKY/WX    TMP DP  RH WIND       PRES   REMARKS
N.O. AUDUBON   NOT AVBL
N.O. INTL ARPT PTCLDY    68  62  81 S8        30.21S
N.O. LAKEFRONT PTCLDY    70  61  73 S12       30.22R
SLIDELL        CLEAR     67  63  87 S7        30.21R
BATON ROUGE    CLEAR     70  58  65 S10       30.19R
BOOTHVILLE     PTCLDY    67  62  84 SE9       30.25R
BELLE CHASSE   CLEAR     66  62  87 S9        30.21S
BOGALUSA*        N/A     67  60  76 S5        30.21S
GALLIANO*      MOCLDY    69  65  86 S3        30.23R
NEW ROADS*       N/A     69  59  71 S6        30.18R
GONZALES*        N/A     68  60  74 CALM      30.20R
HAMMOND*       CLEAR     66  59  77 S3        30.22R
HOUMA*         CLEAR     65  63  94 S5        30.21S
PORT FOURCHON* CLEAR     72  64  78 S6        30.26

$$

MSZ070-080>082-300300-
SOUTHERN MISSISSIPPI

CITY           SKY/WX    TMP DP  RH WIND       PRES   REMARKS
MCCOMB         CLEAR     66  60  81 S10       30.18R
GULFPORT       CLOUDY    67  61  81 S8        30.23R
BILOXI         CLOUDY    67  62  86 S6        30.24R
PASCAGOULA     CLOUDY    65  60  84 SE5       30.25R

$$

COASTAL OBSERVATIONS
LAKE AND NEARSHORE STATIONS

STATION/POSITION TIME  TEMP    WIND        PRES    WAVE
                       AIR SEA DIR/SP/G            HT/PER
                 (UTC) (F)     (DEG/KT/KT) (MB)    (FT/S)
PASCAGOULA       0100   66     130/  5/  8 1023.5
WAVELAND YACHT   0100   67 65  180/  9/ 14 1023.1
GRAND ISLE       0100   69 70  150/  8/ 10 1023.0
SOUTHWEST PASS   0100   67 54  140/  7/ 12 1023.9
NEW CANAL        0100   71     180/  5/  8 1023.4
SHELL BEACH      0100   68 70  160/ 10/ 14 1023.3

OFFSHORE STATIONS

STATION/POSITION TIME  TEMP    WIND        PRES    WAVE
                       AIR SEA DIR/SP/G            HT/PER
                 (UTC) (F)     (DEG/KT/KT) (MB)    (FT/S)
64 S DAUPHIN ISL 0150   69 71  170/ 16/ 17 1024.9    3/ 5

$$



USA.gov is the U.S. government's official web portal to all federal, state and local government web resources and services.